Location: Katlenburg-Lindau
(51.6782°N, 10.1065°E)
Time: 14:30:50
(UTC+00:00)

Daily predictions for brighter satellites

Satellite Brightness Start Highest point End
(mag) Time Altitude Azimuth Time Altitude Azimuth Time Altitude Azimuth
ATLAS 2AS CENTAUR R/B 3.9 18:11:35 10° NW 18:18:53 38° NNE 18:25:44 10° E
STARLINK-1125 4.3 18:15:17 10° WNW 18:19:15 49° SSW 18:23:12 10° SE
STARLINK-1098 3.7 18:15:15 10° WNW 18:19:25 85° NNE 18:23:34 10° ESE
STARLINK-1202 4.4 18:16:12 10° SSW 18:19:50 32° SE 18:23:28 10° E
SL-14 R/B 3.6 18:16:15 10° N 18:20:13 49° ENE 18:24:07 10° SSE
STARLINK-1109 4.4 18:19:52 10° WNW 18:23:48 47° SSW 18:27:44 10° SE
STARLINK-1123 3.7 18:20:14 10° WNW 18:24:23 87° N 18:28:33 10° ESE
SL-8 R/B 3.9 18:19:49 10° WSW 18:24:30 59° S 18:29:13 10° E
Cosmos 1980 3.8 18:18:56 10° SSW 18:24:38 86° ESE 18:30:22 10° NNE
ERBS 2.4 18:23:12 10° WSW 18:26:36 76° NNW 18:29:59 10° ENE
STARLINK-1246 4.3 18:23:08 10° SSW 18:26:52 35° SE 18:30:38 10° E
STARLINK-1091 4.5 18:24:42 10° WNW 18:28:36 44° SSW 18:32:29 10° SE
STARLINK-1097 3.6 18:25:12 10° WNW 18:29:22 90° NNE 18:33:31 10° ESE
Cosmos 2315 Rocket 4.4 18:23:47 10° SSE 18:29:41 43° E 18:35:39 10° NNE
Cosmos 1766 3.3 18:25:52 10° S 18:29:52 83° E 18:33:52 10° NNE
ADEOS Rocket 3.4 18:23:15 10° NNE 18:30:14 79° WNW 18:36:25 10° SSW
USA 234 4.0 18:25:09 10° ENE 18:30:44 29° SE 18:36:18 10° S
STARLINK-67 2.4 18:29:26 10° WSW 18:32:00 66° SSE 18:34:34 10° ENE
STARLINK-1201 3.4 18:29:24 10° SW 18:32:32 46° SSE 18:35:42 10° ENE
Cosmos 1626 2.1 18:29:04 10° N 18:32:46 61° ENE 18:36:26 10° SSE
STARLINK-1224 4.2 18:30:16 10° SW 18:34:03 38° SSE 18:37:51 10° E
STARLINK-1099 3.6 18:30:11 10° WNW 18:34:21 88° SSW 18:38:25 11° ESE
Meteor 2-8 Rocket 4.5 18:28:37 10° S 18:34:41 67° E 18:40:47 10° NNE
STARLINK-1203 4.0 18:31:53 10° SW 18:35:38 41° SSE 18:39:25 10° ENE
H-2A R/B 2.1 18:31:02 10° SSE 18:36:20 78° ENE 18:41:30 10° NNW
HJ-1C 4.3 18:34:08 10° S 18:37:25 52° W 18:40:43 10° NNW
SL-16 R/B 2.5 18:33:18 10° S 18:38:38 45° ESE 18:44:00 10° NE
STARLINK-1225 4.1 18:34:51 10° SW 18:38:40 41° SSE 18:42:31 10° ENE
STARLINK-1104 3.6 18:35:10 10° WNW 18:39:20 85° SSW 18:43:12 12° ESE
TSX-5 4.4 18:34:00 10° NNW 18:39:47 78° NE 18:44:10 10° SE
SL-08 RB Rocket 3.9 18:36:33 10° SE 18:40:56 53° ENE 18:45:24 10° N
Cosmos 2333 Rocket 3.8 18:35:45 10° WSW 18:41:01 38° NW 18:46:18 10° NNE
Resurs 01 Rocket 2.7 18:39:01 10° ESE 18:42:45 28° ENE 18:46:31 10° N
STARLINK-1230 4.0 18:39:31 10° SW 18:43:23 43° SSE 18:47:16 10° ENE
STARLINK-1144 3.6 18:40:10 10° WNW 18:44:19 82° SSW 18:47:59 13° ESE
STARLINK-1233 3.0 18:42:51 10° SW 18:45:56 55° SSE 18:48:52 11° ENE
STARLINK-1212 3.0 18:43:18 10° SW 18:46:23 56° SSE 18:49:17 11° ENE
Cosmos 1302 Rocket 4.0 18:41:17 10° NNW 18:46:35 87° ENE 18:51:53 10° SSE
STARLINK-1105 3.0 18:43:44 10° SW 18:46:49 56° SSE 18:49:44 11° ENE
FREGAT/IRIS 2.3 18:44:12 10° SSE 18:46:56 85° W 18:49:40 10° NNW
STARLINK-1206 3.0 18:44:14 10° SW 18:47:18 56° SSE 18:50:09 12° ENE
STARLINK-1247 3.0 18:44:40 10° SW 18:47:44 57° SSE 18:50:34 12° ENE
STARLINK-1227 3.0 18:45:05 10° SW 18:48:10 57° SSE 18:51:02 12° ENE
STARLINK-1243 3.9 18:44:28 10° SW 18:48:22 46° SSE 18:52:17 10° ENE
Cosmos 1992 Rocket 4.5 18:43:26 10° NNW 18:48:25 43° ENE 18:52:57 12° SE
STARLINK-1218 3.0 18:45:35 10° SW 18:48:38 57° SSE 18:51:27 12° ENE
Abrixas rocket 4.3 18:48:27 10° SSE 18:49:05 10° SE 18:49:06 10° SE
STARLINK-1226 3.0 18:46:01 10° SW 18:49:05 58° SSE 18:51:53 12° ENE
STARLINK-1103 3.6 18:45:08 10° WNW 18:49:17 79° SSW 18:52:45 14° ESE
STARLINK-1254 3.0 18:46:26 10° SW 18:49:31 58° SSE 18:52:20 12° ENE
Cosmos 1709 Rocket 4.0 18:43:16 10° N 18:49:33 84° E 18:55:42 10° S
SeaSat 1 3.6 18:45:00 10° NNE 18:49:44 47° NW 18:54:27 10° WSW
STARLINK-1215 2.9 18:46:56 10° WSW 18:49:59 58° SSE 18:52:44 12° ENE
STARLINK-1231 2.9 18:47:21 10° WSW 18:50:26 59° SSE 18:53:10 12° ENE
STARLINK-1232 2.9 18:48:15 10° WSW 18:51:20 59° SSE 18:54:03 13° ENE
Cosmos 1953 3.4 18:48:27 10° SE 18:51:40 24° E 18:54:54 10° NE
STARLINK-1217 2.9 18:48:42 10° WSW 18:51:47 60° SSE 18:54:28 13° ENE
Cosmos 2084 4.5 18:47:31 10° WSW 18:51:54 50° NW 18:56:17 10° NE
STARLINK-1208 2.9 18:49:07 10° WSW 18:52:13 60° SSE 18:54:56 13° ENE
STARLINK-1229 2.9 18:49:36 10° WSW 18:52:41 60° SSE 18:55:20 13° ENE
STARLINK-1236 3.9 18:49:02 10° SW 18:52:57 48° SSE 18:56:46 11° ENE
STARLINK-1271 2.9 18:50:03 10° WSW 18:53:08 61° SSE 18:55:47 13° ENE
STARLINK-1270 2.9 18:50:31 10° WSW 18:53:36 61° SSE 18:56:13 13° ENE
STARLINK-1154 2.9 18:50:57 10° WSW 18:54:02 61° SSE 18:56:39 14° ENE
STARLINK-1101 3.7 18:50:07 10° WNW 18:54:16 76° SSW 18:57:32 16° ESE
STARLINK-1197 2.9 18:51:52 10° WSW 18:54:56 62° SSE 18:57:31 14° ENE
STARLINK-1189 2.9 18:52:18 10° WSW 18:55:24 63° SSE 18:57:57 14° ENE
MONITOR-E 4.1 18:52:49 10° S 18:55:27 68° WSW 18:58:06 10° NNW
Cosmos 1269 Rocket 4.0 18:50:13 10° SSW 18:55:29 73° ESE 19:00:48 10° NNE
STARLINK-1187 2.8 18:53:08 10° WSW 18:56:14 68° SSE 18:58:50 14° ENE
STARLINK-1188 2.9 18:53:13 10° WSW 18:56:17 63° SSE 18:58:49 14° ENE
STARLINK-1198 2.9 18:53:12 10° WSW 18:56:18 63° SSE 18:58:49 14° ENE
STARLINK-1235 2.8 18:53:48 10° WSW 18:56:56 74° SSE 18:59:33 14° ENE
CZ-4C R/B 3.9 18:52:07 10° W 18:57:17 33° NNW 19:03:23 10° NE
STARLINK-1199 2.9 18:55:08 10° WSW 18:58:15 65° SSE 19:00:44 15° ENE
STARLINK-1191 2.9 18:55:34 10° WSW 18:58:41 65° SSE 19:01:09 15° ENE
STARLINK-1210 2.8 18:56:02 10° WSW 18:59:09 66° SSE 19:01:36 15° ENE
STARLINK-1102 3.7 18:55:05 10° WNW 18:59:13 73° SSW 19:02:19 17° ESE
STARLINK-1221 2.8 18:56:29 10° WSW 18:59:36 66° SSE 19:02:02 15° ENE
STARLINK-1219 2.8 18:56:56 10° WSW 19:00:03 66° SSE 19:02:29 16° ENE
ISS -3.7 18:57:07 10° W 19:00:28 72° SSW 19:02:41 20° ESE
STARLINK-1222 2.8 18:57:23 10° WSW 19:00:30 67° SSE 19:02:54 16° ENE
STARLINK-1211 2.8 18:57:50 10° WSW 19:00:57 67° SSE 19:03:20 16° ENE
Cosmos 2297 4.2 18:55:26 10° NW 19:01:01 61° WSW 19:06:36 10° SSE
STARLINK-1214 2.8 18:58:16 10° WSW 19:01:24 68° SSE 19:03:45 16° ENE
STARLINK-1245 2.8 18:58:46 10° WSW 19:01:51 68° SSE 19:04:11 16° ENE
STARLINK-1238 2.8 18:59:09 10° WSW 19:02:15 68° SSE 19:04:37 16° ENE
Cosmos 2074 Rocket 4.3 18:56:19 10° N 19:02:22 48° ENE 19:08:17 11° SE
STARLINK-1269 3.7 18:58:45 10° SW 19:02:45 54° SSE 19:06:12 13° ENE
BREEZE-M DEB (TANK) 4.0 18:54:56 10° W 19:03:04 69° S 19:05:20 19° ESE
STARLINK-1205 2.8 19:00:04 10° WSW 19:03:10 69° SSE 19:05:26 17° ENE
Cosmos 1455 Rocket 3.4 18:58:52 10° SSW 19:03:12 68° WNW 19:07:34 10° N
Cosmos 2251 Rocket 4.4 18:58:44 10° SSE 19:03:15 29° E 19:07:50 10° NE
Cosmos 2084 Rocket 3.5 18:59:05 10° NW 19:03:34 79° NE 19:06:58 17° SE
STARLINK-1204 2.8 19:00:33 10° WSW 19:03:40 69° SSE 19:05:54 17° ENE
STARLINK-1111 3.7 19:00:04 10° WNW 19:04:12 70° SSW 19:07:06 19° ESE
STARLINK-1200 3.7 19:03:33 10° SW 19:07:33 57° SSE 19:10:50 15° ENE
CZ-2C R/B 3.2 19:03:04 10° NNE 19:07:47 34° E 19:12:28 10° SSE
Cosmos 2237 Rocket 3.0 19:02:40 10° SW 19:08:10 54° NW 19:13:44 10° NNE
Cosmos 1626 Rocket 3.6 19:04:03 10° NNW 19:08:30 82° W 19:12:52 10° S
STARLINK-1073 3.7 19:05:03 10° WNW 19:09:11 67° SSW 19:11:53 20° SE
STARLINK-1192 3.6 19:08:17 10° SW 19:12:18 60° SSE 19:15:24 16° ENE
STARLINK-1121 3.8 19:10:02 10° WNW 19:14:08 64° SSW 19:16:39 22° SE
Cosmos 292 Rocket 3.8 19:10:06 10° NNW 19:14:54 69° ENE 19:18:32 17° SE
Cosmos 1602 Rocket 3.6 19:12:00 10° NNW 19:16:30 86° W 19:20:56 10° S
ARGOS 3.7 19:11:27 10° S 19:16:48 62° WSW 19:22:10 10° NNW
STARLINK-1244 3.6 19:13:10 10° WSW 19:17:13 63° SSE 19:20:08 18° ENE
Cosmos 1656 Rocket 4.3 19:11:52 10° NNW 19:17:15 41° NE 19:20:40 20° ESE
IRIDIUM 104 4.3 19:12:37 10° N 19:17:51 68° E 19:23:02 10° SSE
STARLINK-1106 3.9 19:15:00 10° WNW 19:19:05 60° SSW 19:21:25 24° SE
STARLINK-1138 3.5 19:17:45 10° WSW 19:21:48 66° SSE 19:24:34 20° ENE
MOS 1 Rocket 3.8 19:17:11 10° NNE 19:22:12 47° E 19:27:23 10° S
STARLINK-1234 2.7 19:19:41 10° WSW 19:22:39 85° NNW 19:24:01 29° ENE
STARLINK-1112 3.9 19:20:01 10° WNW 19:24:05 57° SSW 19:26:14 26° SE
USA 186 3.7 19:21:00 10° SSW 19:24:08 32° W 19:27:12 10° NNW
STARLINK-1143 3.5 19:22:37 10° WSW 19:26:42 69° SSE 19:29:16 22° ENE
IRIDIUM 114 4.3 19:21:46 10° N 19:27:01 81° E 19:32:15 10° S
MetOp-A 4.2 19:22:04 10° SSE 19:27:26 84° WSW 19:32:50 10° NNW
COSMOS 2455 4.1 19:22:54 10° NNW 19:28:09 30° NNE 19:32:01 16° E
STARLINK-1128 4.0 19:25:00 10° WNW 19:29:03 54° SSW 19:31:01 27° SE
CZ-2C R/B 4.0 19:24:30 10° S 19:29:18 44° W 19:33:57 10° NNW
Cosmos 1437 2.8 19:27:56 10° N 19:30:54 48° ENE 19:31:25 43° ESE
Cosmos 1470 3.1 19:28:55 10° SSW 19:32:46 66° WNW 19:36:41 10° N
STARLINK-1113 4.1 19:29:58 10° WNW 19:34:00 51° SSW 19:35:47 29° SSE
Cosmos 1726 Rocket 4.4 19:33:42 28° ESE 19:34:21 30° E 19:38:12 10° NNE
STARLINK-1241 3.4 19:30:58 10° WSW 19:35:00 75° SSE 19:37:13 26° ENE
Cosmos 1825 Rocket 3.6 19:31:09 10° N 19:35:35 63° ENE 19:37:53 27° SSE
SPOT 3 Rocket 3.9 19:30:44 10° S 19:35:56 66° WSW 19:41:09 10° NNW
IRIDIUM 103 4.3 19:30:57 10° N 19:36:13 87° W 19:41:26 10° S
NOSS 3-4 (A) 4.1 19:31:32 10° NW 19:38:08 55° NE 19:42:42 23° ESE
NOSS 3-4 (C) 4.1 19:31:38 10° NW 19:38:14 54° NE 19:42:48 23° ESE
STARLINK-1119 4.1 19:34:58 10° WNW 19:38:58 48° SSW 19:40:35 30° SSE
Cosmos 2369 Rocket 2.2 19:33:46 10° NNW 19:39:31 86° WSW 19:43:14 23° SSE
STARLINK-1239 3.4 19:35:52 10° WSW 19:39:55 78° SSE 19:41:56 29° ENE
STARLINK-1114 4.2 19:39:58 10° WNW 19:43:58 46° SSW 19:45:24 32° SSE
Cosmos 1726 2.1 19:42:57 32° SSE 19:44:27 59° E 19:48:10 10° NNE
Aureole 2 Rocket 2.6 19:41:05 10° NNW 19:44:35 67° WSW 19:45:57 34° S
STARLINK-1240 3.4 19:40:34 10° WSW 19:44:38 81° SSE 19:46:29 31° ENE
Cosmos 1758 Rocket 3.5 19:40:58 10° N 19:45:22 89° ENE 19:47:54 25° S
Cosmos 2263 4.1 19:39:54 10° NNW 19:45:34 81° ENE 19:48:35 29° SE
Cosmos 1758 4.2 19:42:47 10° SSW 19:46:48 53° WNW 19:50:50 10° N
SAR-Lupe-2 4.0 19:44:17 10° NNE 19:47:28 41° E 19:47:28 41° E
CZ-2C R/B 4.0 19:43:10 10° NNE 19:47:57 74° WNW 19:52:38 10° SSW
Cosmos 1908 4.0 19:48:58 34° ENE 19:48:58 34° ENE 19:52:04 10° NNE
STARLINK-1130 (DARKSAT) 4.3 19:44:58 10° WNW 19:48:54 43° SSW 19:50:10 33° SSE
STARLINK-1216 3.4 19:45:18 10° WSW 19:49:22 84° SSE 19:51:03 34° ENE
NOSS 3-3 (A) 4.2 19:44:22 10° S 19:49:54 43° ESE 19:56:06 10° NE
NOSS 3-3 (C) 4.2 19:44:29 10° S 19:50:01 43° ESE 19:56:12 10° NE
Meteor 2-17 Rocket 4.5 19:44:18 10° N 19:50:25 63° ENE 19:53:45 28° SSE
ATLAS CENTAUR R/B 4.0 19:49:19 10° NW 19:51:32 14° N 19:53:40 10° NNE
Cosmos 1953 Rocket 3.6 19:47:26 10° N 19:51:52 63° ENE 19:53:21 39° SE
STARLINK-1209 2.8 19:49:42 10° W 19:52:38 69° N 19:52:48 66° NNE
STARLINK-1084 4.4 19:49:56 10° WNW 19:53:50 41° SSW 19:54:56 33° S
STARLINK-1237 3.4 19:50:06 10° WSW 19:54:10 86° SSE 19:55:38 38° ENE
Cosmos 2184 Rocket 4.0 19:48:02 10° NNW 19:54:24 84° W 19:59:37 16° S
Terra 3.1 19:53:53 23° ENE 19:54:37 24° ENE 19:58:26 10° N
STARLINK-1228 2.8 19:51:55 10° W 19:54:48 68° N 19:54:50 68° N
Spot 2 Rocket 3.5 19:55:41 33° SSE 19:57:58 71° ENE 20:03:05 10° NNW
STARLINK-1098 4.5 19:54:57 10° WNW 19:58:48 38° SSW 19:59:43 33° S
STARLINK-1202 3.4 19:54:50 10° WSW 19:58:54 89° S 20:00:12 42° ENE
Cosmos 1606 Rocket 3.5 19:59:08 37° SSE 20:00:42 64° E 20:05:07 10° NNE
Cosmos 1943 Rocket 2.9 19:55:29 10° NW 20:00:48 49° WSW 20:04:35 19° S
SPOT 1/Viking Rocket 3.8 20:00:50 38° ESE 20:02:28 53° ENE 20:07:34 10° N
ERBS 3.8 20:00:09 10° WNW 20:03:16 33° N 20:04:36 24° NE
Cosmos 1943 3.3 20:01:04 18° S 20:05:07 49° ESE 20:10:36 10° NE
STARLINK-67 3.9 20:03:27 10° W 20:05:15 38° WNW 20:05:15 38° WNW
STARLINK-1246 3.5 20:02:01 10° WSW 20:06:08 87° N 20:07:11 49° ENE
SL-8 R/B 4.1 20:02:09 10° W 20:06:44 47° SSW 20:07:34 42° SSE
Meteor 2-10 4.1 20:01:50 10° SSW 20:07:13 89° WNW 20:12:50 10° NNE
STARLINK-1201 3.1 20:05:28 10° W 20:08:41 72° NNW 20:08:41 72° NNW
ATLAS 2AS CENTAUR R/B 2.9 20:03:15 10° NW 20:11:03 75° NE 20:14:22 36° ESE
STARLINK-1224 3.5 20:09:09 10° WSW 20:13:14 84° NNW 20:13:58 59° ENE
Cosmos 1340 Rocket 4.1 20:15:29 28° NE 20:15:29 28° NE 20:17:51 10° NNE
USA 234 3.1 20:07:52 10° ENE 20:14:26 78° SSE 20:20:59 10° SW
STARLINK-1203 3.5 20:10:31 10° W 20:14:31 81° NNW 20:15:06 62° ENE
Cosmos 2154 Rocket 4.0 20:09:07 10° N 20:15:31 88° W 20:18:59 29° S
USA 245 4.1 20:15:17 41° SSE 20:17:13 90° ENE 20:23:13 10° NNW
STARLINK-1225 3.5 20:13:45 10° W 20:17:50 82° NNW 20:18:23 65° ENE
Resurs 01 Rocket 2.7 20:16:28 20° SSW 20:19:06 41° W 20:23:18 10° NNW
Cosmos 1328 4.0 20:15:38 10° NNW 20:19:37 67° W 20:20:24 52° SSW
Cosmos 921 Rocket 3.5 20:17:30 10° N 20:21:21 42° NE 20:21:21 42° NE
STARLINK-1233 3.8 20:18:36 10° W 20:21:02 47° WNW 20:21:02 47° WNW
STARLINK-1212 3.9 20:19:05 10° W 20:21:27 46° WNW 20:21:27 46° WNW
STARLINK-1230 3.5 20:18:30 10° W 20:22:35 81° N 20:22:57 71° NE
STARLINK-1105 3.9 20:19:30 10° W 20:21:53 46° WNW 20:21:53 46° WNW
SL-16 R/B 3.5 20:17:30 10° WSW 20:22:50 41° NW 20:28:13 10° NNE
STARLINK-1206 4.0 20:20:01 10° W 20:22:19 43° WNW 20:22:19 43° WNW
STARLINK-1247 4.0 20:20:27 10° W 20:22:44 43° WNW 20:22:44 43° WNW
Cosmos 2228 3.0 20:22:39 47° SSW 20:23:51 82° WNW 20:28:11 10° N
STARLINK-1227 4.0 20:20:52 10° W 20:23:12 44° WNW 20:23:12 44° WNW
STARLINK-1218 4.1 20:21:22 10° W 20:23:36 42° WNW 20:23:36 42° WNW
STARLINK-1226 4.1 20:21:48 10° W 20:24:03 42° WNW 20:24:03 42° WNW
Cosmos 407 Rocket 4.5 20:26:39 30° ENE 20:26:39 30° ENE 20:29:46 10° NE
Cosmos 967 Rocket 4.4 20:18:46 10° SSW 20:25:08 67° ESE 20:31:36 10° NE
STARLINK-1254 4.1 20:22:13 10° W 20:24:30 42° WNW 20:24:30 42° WNW
STARLINK-1215 4.1 20:22:43 10° W 20:24:54 40° WNW 20:24:54 40° WNW
STARLINK-1231 4.2 20:23:09 10° W 20:25:19 40° WNW 20:25:19 40° WNW
Cosmos 2058 4.4 20:22:46 10° N 20:25:19 24° NE 20:25:19 24° NE
STARLINK-1232 4.2 20:24:04 10° W 20:26:13 39° WNW 20:26:13 39° WNW
STARLINK-1217 4.2 20:24:31 10° W 20:26:38 38° WNW 20:26:38 38° WNW
STARLINK-1243 3.5 20:23:34 10° W 20:27:39 79° NNW 20:27:50 76° NNE
Cosmos 1953 3.9 20:24:15 10° SW 20:27:55 35° WNW 20:31:37 10° N
STARLINK-1208 4.2 20:24:56 10° W 20:27:06 39° WNW 20:27:06 39° WNW
STARLINK-1229 4.3 20:25:24 10° W 20:27:29 37° WNW 20:27:29 37° WNW
STARLINK-1271 4.3 20:25:51 10° W 20:27:56 37° WNW 20:27:56 37° WNW
STARLINK-1270 4.3 20:26:19 10° W 20:28:22 36° WNW 20:28:22 36° WNW
Iridium 4 Rocket 4.1 20:25:36 10° N 20:28:55 33° NE 20:28:55 33° NE
Cosmos 962 Rocket 4.4 20:23:33 10° N 20:29:48 78° ENE 20:31:44 46° SSE
STARLINK-1154 4.4 20:26:47 10° W 20:28:49 36° WNW 20:28:49 36° WNW
STARLINK-1197 4.4 20:27:41 10° W 20:29:41 35° WNW 20:29:41 35° WNW
STARLINK-1189 4.4 20:28:08 10° W 20:30:07 34° WNW 20:30:07 34° WNW
STARLINK-1187 4.4 20:28:59 10° W 20:31:00 35° WNW 20:31:00 35° WNW
STARLINK-1188 4.5 20:29:02 10° W 20:30:58 33° WNW 20:30:58 33° WNW
STARLINK-1236 3.6 20:28:08 10° W 20:32:12 77° NNW 20:32:12 77° NNW
STARLINK-1235 4.4 20:29:41 10° W 20:31:43 35° WNW 20:31:43 35° WNW
Nadezhda 1 Rocket 4.1 20:29:47 18° SSW 20:34:48 81° W 20:41:14 10° N
SL-8 Rocket 4.1 20:29:28 10° N 20:35:43 61° ENE 20:37:02 51° ESE
ISS -1.5 20:34:11 10° W 20:35:39 19° WSW 20:35:39 19° WSW
Mayak 1.3 20:38:48 10° NE 20:38:57 11° NE 20:38:57 11° NE
STARLINK-1269 3.8 20:38:02 10° W 20:41:43 67° WNW 20:41:43 67° WNW
Cosmos 2058 Rocket 3.0 20:42:37 84° NE 20:42:37 84° NE 20:47:03 10° N
Cosmos 2366 rocket 4.0 20:37:28 10° N 20:43:32 56° ENE 20:44:18 52° ESE
SPOT 5 2.6 20:44:26 72° NE 20:44:26 72° NE 20:48:31 10° NNW
Cosmos 614 Rocket 4.1 20:44:50 57° ENE 20:44:50 57° ENE 20:49:22 10° NNE
Cosmos 1603 3.7 20:38:43 10° SW 20:44:21 77° WNW 20:50:00 10° NNE
Cosmos 2251 Rocket 4.3 20:40:01 10° SW 20:45:16 54° WNW 20:50:35 10° NNE
STARLINK-1200 4.0 20:42:52 10° W 20:46:21 60° WNW 20:46:21 60° WNW
CZ-4C R/B 4.1 20:42:03 10° NW 20:47:36 31° N 20:53:34 12° ENE
CZ-2C R/B 3.7 20:43:19 10° N 20:48:12 42° WNW 20:53:01 10° SW
IGS 5A 3.9 20:49:02 56° WSW 20:49:04 56° W 20:53:11 10° NNW
ERS-1 Rocket 2.8 20:48:38 73° S 20:49:07 84° WSW 20:54:12 10° NNW
Landsat 7 4.2 20:49:40 51° SW 20:50:24 57° W 20:55:08 10° NNW
Cosmos 1980 Rocket 4.3 20:47:34 10° N 20:51:02 16° NNE 20:53:43 12° ENE
STARLINK-1192 4.2 20:47:39 10° W 20:50:56 54° WNW 20:50:56 54° WNW
STARLINK-1244 4.4 20:52:35 10° W 20:55:40 48° WNW 20:55:40 48° WNW
Cosmos 1892 4.5 20:54:55 10° N 20:56:56 26° NNE 20:56:56 26° NNE
Cosmos 1959 Rocket 4.4 20:52:41 10° N 20:59:04 73° ENE 20:59:53 65° SE
Cosmos 1656 Rocket 4.3 20:55:33 10° NW 21:00:57 46° WSW 21:02:04 41° SW
Cosmos 1076 Rocket 4.4 20:57:23 10° N 21:00:23 41° NNE 21:00:23 41° NNE
Aureole 1 Rocket 4.1 21:01:50 30° SSW 21:06:05 85° ESE 21:12:28 10° NNE
CARTOSAT-1 4.1 21:07:29 57° WNW 21:07:29 57° WNW 21:11:15 10° NNW
COSMOS 2455 2.7 21:08:48 10° NW 21:14:53 88° NE 21:15:09 82° SE
In-Cosmos 22 Rocket 4.2 21:14:14 10° NNW 21:20:04 87° W 21:20:10 86° SSW
ASTEX 1 4.4 21:22:57 38° NE 21:22:57 38° NE 21:26:30 10° N
Cosmos 1461 3.9 21:17:37 10° NW 21:20:56 49° NW 21:20:56 49° NW
Cosmos 2369 Rocket 4.3 21:19:10 10° WNW 21:22:43 17° W 21:25:03 14° SW
Cosmos 1821 Rocket 4.3 21:21:27 10° N 21:27:28 52° ENE 21:27:28 52° ENE
Cosmos 1763 Rocket 4.1 21:23:02 10° NNW 21:27:28 47° NNE 21:27:28 47° NNE
Cosmos 1656 4.3 21:23:22 10° NNW 21:28:47 46° NE 21:28:47 46° NE
NOSS 3-4 (A) 4.1 21:22:29 10° NW 21:29:14 55° SW 21:30:09 52° SSW
NOSS 3-4 (C) 4.0 21:22:36 10° NW 21:29:20 56° SW 21:30:14 52° SSW
Cosmos 1190 Rocket 4.3 21:31:47 63° N 21:31:47 63° N 21:36:18 10° NNE
ATLAS CENTAUR R/B 3.6 21:29:04 10° NNW 21:31:52 18° NNE 21:31:52 18° NNE
Terra 2.5 21:32:45 51° WNW 21:32:45 51° WNW 21:36:46 10° NNW
Meteor 2-12 Rocket 4.3 21:30:25 10° NNW 21:36:33 84° W 21:36:33 84° W
Cosmos 1818 4.0 21:39:11 55° NNE 21:39:11 55° NNE 21:43:31 10° NE
Cosmos 2218 Rocket 4.4 21:42:08 10° NNW 21:48:07 54° W 21:48:36 53° WSW
Cosmos 1943 4.5 21:44:04 10° WSW 21:49:21 39° NW 21:54:41 10° NNE
Cosmos 1140 Rocket 4.2 21:56:03 52° NNW 21:56:03 52° NNW 22:00:16 10° NNE
USA 234 3.6 21:50:57 10° ENE 21:57:23 62° NNW 22:03:50 10° W
Cosmos 841 Rocket 4.4 21:52:45 10° NNW 21:56:50 44° NNE 21:56:50 44° NNE
Cosmos 540 Rocket 4.5 21:56:07 10° NNW 21:59:57 41° NNE 21:59:57 41° NNE
ATLAS 2AS CENTAUR R/B 3.7 21:54:50 10° NW 22:01:32 35° WSW 22:01:48 35° WSW
Cosmos 2344 4.5 21:55:08 10° NW 22:03:48 61° NNE 22:09:43 31° E
Cosmos 1697 Rocket 3.4 22:05:28 10° NNW 22:10:12 49° NNE 22:10:12 49° NNE
SL-16 R/B 4.3 22:09:16 10° NNW 22:13:18 19° NNE 22:15:22 16° ENE
Mayak 0.9 22:13:40 10° N 22:15:32 25° N 22:15:32 25° N
Cosmos 2322 Rocket 4.3 22:23:34 10° NNW 22:27:39 20° NNE 22:29:38 17° ENE
Cosmos 1980 Rocket 3.1 22:31:00 10° NNW 22:35:28 44° NNE 22:35:28 44° NNE
CZ-4C R/B 3.2 22:30:52 10° NW 22:37:31 57° NE 22:38:44 51° ENE
Nadezhda 3 Rocket 4.3 22:38:52 65° NNW 22:38:52 65° NNW 22:44:26 10° N
COSMOS 2406 4.4 22:56:09 37° NE 22:56:09 37° NE 22:59:31 10° NNE
Cosmos 2082 Rocket 4.0 23:00:51 22° ENE 23:00:51 22° ENE 23:03:08 10° NE
ATLAS CENTAUR R/B 4.3 23:07:43 10° NW 23:08:02 12° NW 23:08:02 12° NW
ATLAS 5 CENTAUR R/B 3.6 23:20:05 28° NNE 23:20:05 28° NNE 23:22:52 10° NE
Cosmos 1833 Rocket 3.8 23:28:31 39° NE 23:28:31 39° NE 23:32:01 10° NNE
CZ-2D R/B 4.5 23:30:42 10° NE 23:32:53 14° ENE 23:32:53 14° ENE
Resurs 1-4 Rocket 4.4 23:32:13 10° NE 23:34:06 14° ENE 23:34:06 14° ENE
Cosmos 2173 Rocket 4.4 23:30:15 10° N 23:35:08 55° NNE 23:35:08 55° NNE
USA 234 3.7 23:33:38 10° E 23:40:02 59° N 23:46:26 10° WNW
Cosmos 2061 Rocket 4.4 23:46:36 10° N 23:51:53 59° NNE 23:51:53 59° NNE
SL-16 R/B 3.4 23:52:44 40° ENE 23:53:20 41° ENE 23:59:08 10° N
